• In Österreich
  • Länderverzeichnis
  • Für 7 Tage
  • Wassertemperatur
  • Satellitenkarten
  • Wetterkarte
  • News
  • Widgets
  • user-avatar
    Anmelden

    Stündliche Wetter Kryl

    Heute, 17 Juli, Dienstag

    Zeit Temperatur Niederschläge Wind Luftdruck Luftfeuchtigkeit
    00:00 +19°C° 0,2 mm 2 m/S 747 mmHg 87%
    01:00 +19°C° 0 mm 2 m/S 747 mmHg 89%
    02:00 +18°C° 0,9 mm 2 m/S 747 mmHg 90%
    03:00 +18°C° 0,9 mm 2 m/S 747 mmHg 92%
    04:00 +18°C° 0,9 mm 2 m/S 747 mmHg 93%
    05:00 +18°C° 0,3 mm 2 m/S 747 mmHg 91%
    06:00 +19°C° 0,3 mm 3 m/S 747 mmHg 89%
    07:00 +19°C° 0,3 mm 3 m/S 747 mmHg 87%
    08:00 +20°C° 0,4 mm 3 m/S 747 mmHg 84%
    09:00 +21°C° 0,4 mm 4 m/S 747 mmHg 81%
    10:00 +21°C° 0,4 mm 4 m/S 747 mmHg 79%
    11:00 +21°C° 0,7 mm 4 m/S 747 mmHg 80%
    12:00 +21°C° 0,7 mm 4 m/S 747 mmHg 82%
    13:00 +21°C° 0,7 mm 4 m/S 746 mmHg 84%
    14:00 +21°C° 0,8 mm 4 m/S 746 mmHg 84%
    15:00 +21°C° 0,8 mm 4 m/S 746 mmHg 84%
    16:00 +21°C° 0,8 mm 4 m/S 746 mmHg 84%
    17:00 +20°C° 0,7 mm 4 m/S 746 mmHg 86%
    18:00 +20°C° 0,7 mm 4 m/S 746 mmHg 87%
    19:00 +20°C° 0,7 mm 3 m/S 746 mmHg 89%
    20:00 +19°C° 0,3 mm 3 m/S 746 mmHg 90%
    21:00 +19°C° 0,3 mm 3 m/S 747 mmHg 91%
    22:00 +19°C° 0,3 mm 3 m/S 747 mmHg 92%
    23:00 +19°C° 0,1 mm 3 m/S 746 mmHg 93%

    Morgen, 18 Juli, Mittwoch

    Zeit Temperatur Niederschläge Wind Luftdruck Luftfeuchtigkeit
    00:00 +18°C° 0,1 mm 3 m/S 746 mmHg 94%
    01:00 +18°C° 0,1 mm 3 m/S 746 mmHg 95%
    02:00 +18°C° 0,1 mm 3 m/S 746 mmHg 95%
    03:00 +18°C° 0,1 mm 4 m/S 746 mmHg 95%
    04:00 +18°C° 0,1 mm 4 m/S 746 mmHg 95%
    05:00 +18°C° 1,1 mm 4 m/S 746 mmHg 94%
    06:00 +19°C° 1,1 mm 5 m/S 747 mmHg 93%
    07:00 +19°C° 1,1 mm 5 m/S 747 mmHg 92%
    08:00 +19°C° 2,3 mm 5 m/S 747 mmHg 91%
    09:00 +19°C° 2,3 mm 5 m/S 747 mmHg 91%
    10:00 +19°C° 2,3 mm 5 m/S 748 mmHg 90%
    11:00 +20°C° 1,3 mm 5 m/S 748 mmHg 90%
    12:00 +20°C° 1,3 mm 5 m/S 748 mmHg 89%
    13:00 +20°C° 1,3 mm 5 m/S 748 mmHg 88%
    14:00 +20°C° 0,5 mm 4 m/S 748 mmHg 87%
    15:00 +21°C° 0,5 mm 4 m/S 748 mmHg 86%
    16:00 +21°C° 0,5 mm 4 m/S 748 mmHg 85%
    17:00 +21°C° 0,4 mm 4 m/S 748 mmHg 86%
    18:00 +20°C° 0,4 mm 3 m/S 749 mmHg 87%
    19:00 +20°C° 0,4 mm 3 m/S 749 mmHg 89%
    20:00 +19°C° 0,5 mm 3 m/S 749 mmHg 90%
    21:00 +19°C° 0,5 mm 3 m/S 749 mmHg 91%
    22:00 +18°C° 0,5 mm 3 m/S 749 mmHg 93%
    23:00 +18°C° 0,5 mm 3 m/S 749 mmHg 92%

    übermorgen, 19 Juli, Donnerstag

    Zeit Temperatur Niederschläge Wind Luftdruck Luftfeuchtigkeit
    00:00 +18°C° 0,5 mm 3 m/S 749 mmHg 92%
    01:00 +18°C° 0,5 mm 3 m/S 749 mmHg 91%
    02:00 +18°C° 0,3 mm 4 m/S 749 mmHg 91%
    03:00 +18°C° 0,3 mm 4 m/S 749 mmHg 91%
    04:00 +17°C° 0,3 mm 4 m/S 749 mmHg 91%
    05:00 +18°C° 0,1 mm 4 m/S 749 mmHg 90%
    06:00 +18°C° 0,1 mm 4 m/S 749 mmHg 89%
    07:00 +18°C° 0,1 mm 4 m/S 749 mmHg 88%
    08:00 +19°C° 0,2 mm 5 m/S 750 mmHg 84%
    09:00 +20°C° 0,2 mm 5 m/S 750 mmHg 80%
    10:00 +21°C° 0,2 mm 5 m/S 750 mmHg 77%
    11:00 +21°C° 0,5 mm 5 m/S 750 mmHg 77%
    12:00 +21°C° 0,5 mm 5 m/S 750 mmHg 78%
    13:00 +21°C° 0,5 mm 5 m/S 750 mmHg 79%
    14:00 +21°C° 0,1 mm 5 m/S 750 mmHg 79%
    15:00 +21°C° 0,1 mm 5 m/S 750 mmHg 80%
    16:00 +20°C° 0,1 mm 5 m/S 750 mmHg 80%
    17:00 +20°C° 0,1 mm 4 m/S 750 mmHg 83%
    18:00 +19°C° 0,1 mm 4 m/S 750 mmHg 85%
    19:00 +18°C° 0,1 mm 4 m/S 750 mmHg 87%
    20:00 +18°C° 0 mm 3 m/S 750 mmHg 88%
    21:00 +18°C° 0 mm 3 m/S 751 mmHg 89%
    22:00 +17°C° 0 mm 3 m/S 751 mmHg 90%
    23:00 +17°C° 0,1 mm 3 m/S 751 mmHg 89%

    20 Juli, Freitag

    Zeit Temperatur Niederschläge Wind Luftdruck Luftfeuchtigkeit
    00:00 +17°C° 0,1 mm 3 m/S 751 mmHg 89%
    01:00 +17°C° 0,1 mm 2 m/S 751 mmHg 89%
    02:00 +16°C° 0 mm 2 m/S 751 mmHg 89%
    03:00 +16°C° 0 mm 2 m/S 751 mmHg 89%
    04:00 +16°C° 0 mm 2 m/S 751 mmHg 89%
    05:00 +16°C° 0 mm 2 m/S 751 mmHg 86%
    06:00 +17°C° 0 mm 3 m/S 751 mmHg 83%
    07:00 +18°C° 0 mm 3 m/S 751 mmHg 80%
    08:00 +19°C° 0 mm 3 m/S 751 mmHg 73%
    09:00 +21°C° 0 mm 3 m/S 751 mmHg 67%
    10:00 +24°C° 0 mm 3 m/S 751 mmHg 60%
    11:00 +25°C° 0 mm 3 m/S 751 mmHg 57%
    12:00 +26°C° 0 mm 3 m/S 751 mmHg 54%
    13:00 +26°C° 0 mm 4 m/S 750 mmHg 51%
    14:00 +27°C° 0 mm 4 m/S 750 mmHg 51%
    15:00 +27°C° 0 mm 4 m/S 750 mmHg 51%
    16:00 +27°C° 0 mm 4 m/S 750 mmHg 51%
    17:00 +26°C° 0 mm 3 m/S 750 mmHg 55%
    18:00 +25°C° 0 mm 3 m/S 750 mmHg 60%
    19:00 +22°C° 0 mm 3 m/S 750 mmHg 65%
    20:00 +21°C° 0 mm 2 m/S 750 mmHg 69%
    21:00 +19°C° 0 mm 2 m/S 750 mmHg 74%
    22:00 +17°C° 0 mm 2 m/S 750 mmHg 78%
    23:00 +17°C° 0 mm 2 m/S 750 mmHg 77%

    21 Juli, Samstag

    Zeit Temperatur Niederschläge Wind Luftdruck Luftfeuchtigkeit
    00:00 +16°C° 0 mm 1 m/S 750 mmHg 76%
    01:00 +15°C° 0 mm 1 m/S 750 mmHg 75%
    02:00 +15°C° 0 mm 1 m/S 750 mmHg 75%
    03:00 +14°C° 0 mm 1 m/S 750 mmHg 76%
    04:00 +14°C° 0 mm 1 m/S 750 mmHg 76%
    05:00 +15°C° 0 mm 1 m/S 750 mmHg 72%
    06:00 +17°C° 0 mm 2 m/S 750 mmHg 68%
    07:00 +18°C° 0 mm 2 m/S 750 mmHg 64%
    08:00 +20°C° 0 mm 2 m/S 750 mmHg 59%
    09:00 +23°C° 0 mm 2 m/S 750 mmHg 53%
    10:00 +24°C° 0 mm 3 m/S 750 mmHg 48%
    11:00 +25°C° 0 mm 3 m/S 750 mmHg 45%
    12:00 +26°C° 0 mm 3 m/S 750 mmHg 43%
    13:00 +27°C° 0 mm 3 m/S 750 mmHg 40%
    14:00 +27°C° 0 mm 3 m/S 749 mmHg 42%
    15:00 +27°C° 0 mm 3 m/S 749 mmHg 43%
    16:00 +27°C° 0 mm 3 m/S 749 mmHg 44%
    17:00 +26°C° 0 mm 3 m/S 749 mmHg 50%
    18:00 +25°C° 0 mm 3 m/S 749 mmHg 56%
    19:00 +23°C° 0 mm 2 m/S 749 mmHg 62%
    20:00 +21°C° 0 mm 2 m/S 749 mmHg 67%
    21:00 +19°C° 0 mm 2 m/S 749 mmHg 72%
    22:00 +18°C° 0 mm 2 m/S 750 mmHg 77%
    23:00 +18°C° 0 mm 1 m/S 750 mmHg 78%

    22 Juli, Sonntag

    Zeit Temperatur Niederschläge Wind Luftdruck Luftfeuchtigkeit
    00:00 +18°C° 0 mm 1 m/S 750 mmHg 78%
    01:00 +16°C° 0 mm 1 m/S 750 mmHg 79%
    02:00 +16°C° 0 mm 1 m/S 750 mmHg 79%
    03:00 +15°C° 0 mm 1 m/S 750 mmHg 80%
    04:00 +15°C° 0 mm 1 m/S 750 mmHg 80%
    05:00 +18°C° 0 mm 1 m/S 750 mmHg 76%
    06:00 +19°C° 0 mm 1 m/S 750 mmHg 71%
    07:00 +21°C° 0 mm 1 m/S 750 mmHg 67%
    08:00 +21°C° 0 mm 2 m/S 750 mmHg 63%
    09:00 +23°C° 0 mm 2 m/S 750 mmHg 60%
    10:00 +24°C° 0 mm 2 m/S 750 mmHg 57%
    11:00 +25°C° 0,3 mm 3 m/S 750 mmHg 55%
    12:00 +25°C° 0,3 mm 3 m/S 750 mmHg 54%
    13:00 +26°C° 0,3 mm 3 m/S 750 mmHg 53%
    14:00 +26°C° 0,3 mm 3 m/S 750 mmHg 53%
    15:00 +26°C° 0,3 mm 3 m/S 750 mmHg 53%
    16:00 +26°C° 0,3 mm 3 m/S 750 mmHg 52%
    17:00 +25°C° 0 mm 3 m/S 750 mmHg 57%
    18:00 +24°C° 0 mm 2 m/S 750 mmHg 61%
    19:00 +23°C° 0 mm 2 m/S 750 mmHg 65%
    20:00 +21°C° 0 mm 2 m/S 750 mmHg 71%
    21:00 +19°C° 0 mm 2 m/S 751 mmHg 76%
    22:00 +19°C° 0 mm 1 m/S 751 mmHg 82%
    23:00 +18°C° 0 mm 1 m/S 751 mmHg 84%
    Mehr zeigen